Weather History for Keokuk, IA

Change the Weather History Date:

Tuesday, January 29, 2013

  Actual Average Record
Temperature  
Mean Temperature 48 °F -  
Max Temperature 62 °F 34 °F 62 °F (2013)
Min Temperature 35 °F 15 °F -15 °F (1966)
Degree Days  
Heating Degree Days 16    
Moisture  
Dew Point 46 °F    
Average Humidity 80    
Maximum Humidity 88    
Minimum Humidity 72    
Precipitation  
Precipitation 0.99 in - - ()
Sea Level Pressure  
Sea Level Pressure 29.57 in    
Wind  
Wind Speed 12 mph (SW)    
Max Wind Speed 22 mph    
Max Gust Speed 28 mph    
Visibility 8 miles    
Events Rain    
Averages and records for this station are not official NWS values.
T = Trace of Precipitation, MM = Missing Value Source: NWS Daily Summary

Daily Weather History Graph

Daily Weather History Graph

Search for Another Location

Airport:

Trip Planner

Search our weather history database for the weather conditions in past years. The results will help you decide how hot, cold, wet, or windy it might be!

Date:

Astronomy

Jan. 29, 2013 Rise Set
Actual Time 7:17 AM CST 5:20 PM CST
Civil Twilight 6:48 AM CST 5:49 PM CST
Nautical Twilight 6:15 AM CST 6:22 PM CST
Astronomical Twilight 5:43 AM CST 6:54 PM CST
Moon 8:17 PM CST (1/29) 8:14 AM CST (1/29)
Length of Visible Light 11h 01m
Length of Day
10h 02m
Waning Gibbous, 93% of the Moon is Illuminated
Jan 29
Waning Gibbous
Feb 3
Last Quarter
Feb 10
New
Feb 17
First Quarter
Feb 25
Full

Hourly Weather History & Observations

Time (CST) Temp. Windchill Dew Point Humidity Pressure Visibility Wind Dir Wind Speed Gust Speed Precip Events Conditions
12:15 AM 62.6 °F - 53.6 °F 72% 29.71 in 10.0 mi South 15.0 mph 23.0 mph N/A   Clear
12:35 AM 62.6 °F - 53.6 °F 72% 29.70 in 10.0 mi South 18.4 mph 25.3 mph N/A   Scattered Clouds
12:55 AM 62.6 °F - 53.6 °F 72% 29.69 in 10.0 mi South 15.0 mph 24.2 mph N/A   Scattered Clouds
1:15 AM 62.6 °F - 55.4 °F 77% 29.69 in 10.0 mi South 17.3 mph 24.2 mph N/A   Clear
1:35 AM 62.6 °F - 53.6 °F 72% 29.68 in 10.0 mi South 13.8 mph 21.9 mph N/A   Clear
1:55 AM 62.6 °F - 55.4 °F 77% 29.68 in 10.0 mi South 16.1 mph 25.3 mph N/A   Clear
2:15 AM 62.6 °F - 53.6 °F 72% 29.68 in 10.0 mi South 15.0 mph 23.0 mph N/A   Scattered Clouds
2:35 AM 62.6 °F - 53.6 °F 72% 29.67 in 10.0 mi South 12.7 mph - N/A   Mostly Cloudy
2:55 AM 60.8 °F - 53.6 °F 77% 29.67 in 10.0 mi South 15.0 mph - N/A   Scattered Clouds
3:15 AM 62.6 °F - 53.6 °F 72% 29.66 in 10.0 mi South 12.7 mph 19.6 mph N/A   Scattered Clouds
3:35 AM 62.6 °F - 55.4 °F 77% 29.65 in 10.0 mi South 21.9 mph 27.6 mph N/A Rain Light Rain
3:55 AM 60.8 °F - 53.6 °F 77% 29.65 in 10.0 mi South 16.1 mph 24.2 mph N/A   Mostly Cloudy
4:15 AM 62.6 °F - 55.4 °F 77% 29.64 in 10.0 mi South 13.8 mph - N/A   Mostly Cloudy
4:35 AM 62.6 °F - 55.4 °F 77% 29.65 in 10.0 mi South 15.0 mph 21.9 mph N/A Rain Light Rain
5:15 AM 60.8 °F - 55.4 °F 82% 29.64 in 10.0 mi South 15.0 mph - 0.01 in   Mostly Cloudy
5:35 AM 60.8 °F - 55.4 °F 82% 29.63 in 10.0 mi South 16.1 mph 21.9 mph 0.01 in   Scattered Clouds
5:55 AM 62.6 °F - 55.4 °F 77% 29.63 in 10.0 mi South 15.0 mph 20.7 mph 0.01 in   Clear
6:15 AM 62.6 °F - 55.4 °F 77% 29.63 in 10.0 mi SSW 12.7 mph - N/A   Scattered Clouds
6:35 AM 60.8 °F - 53.6 °F 77% 29.63 in 10.0 mi South 15.0 mph 20.7 mph N/A   Scattered Clouds
6:55 AM 60.8 °F - 53.6 °F 77% 29.63 in 10.0 mi South 13.8 mph 21.9 mph N/A   Mostly Cloudy
7:15 AM 60.8 °F - 53.6 °F 77% 29.63 in 10.0 mi South 13.8 mph 20.7 mph N/A   Scattered Clouds
7:35 AM 60.8 °F - 53.6 °F 77% 29.63 in 10.0 mi SSW 12.7 mph 19.6 mph N/A   Clear
7:55 AM 60.8 °F - 53.6 °F 77% 29.63 in 10.0 mi South 15.0 mph 18.4 mph N/A   Scattered Clouds
8:15 AM 60.8 °F - 53.6 °F 77% 29.61 in 10.0 mi South 13.8 mph 17.3 mph N/A   Mostly Cloudy
8:35 AM 62.6 °F - 53.6 °F 72% 29.60 in 10.0 mi South 11.5 mph 17.3 mph N/A   Scattered Clouds
8:55 AM 62.6 °F - 55.4 °F 77% 29.59 in 10.0 mi South 11.5 mph 20.7 mph N/A   Clear
9:15 AM 62.6 °F - 55.4 °F 77% 29.60 in 10.0 mi South 13.8 mph 20.7 mph N/A   Mostly Cloudy
9:35 AM 62.6 °F - 55.4 °F 77% 29.60 in 10.0 mi South 12.7 mph 20.7 mph N/A   Overcast
9:55 AM 62.6 °F - 55.4 °F 77% 29.61 in 10.0 mi SSW 15.0 mph 20.7 mph N/A   Scattered Clouds
10:15 AM 62.6 °F - 55.4 °F 77% 29.60 in 10.0 mi SW 12.7 mph 18.4 mph N/A Rain Light Rain
10:35 AM 60.8 °F - 53.6 °F 77% 29.59 in 7.0 mi SSW 5.8 mph - N/A Rain Light Rain
10:55 AM 59.0 °F - 53.6 °F 82% 29.60 in 7.0 mi SW 8.1 mph - 0.01 in Rain Rain
11:15 AM 60.8 °F - 53.6 °F 77% 29.61 in 10.0 mi SW 10.4 mph - 0.05 in Rain Rain
11:35 AM 59.0 °F - 53.6 °F 82% 29.60 in 10.0 mi SW 11.5 mph - 0.11 in Rain Rain
11:55 AM 57.2 °F - 51.8 °F 82% 29.60 in 7.0 mi SSW 9.2 mph - 0.16 in Rain Rain
12:15 PM 57.2 °F - 51.8 °F 82% 29.57 in 10.0 mi SW 9.2 mph - 0.04 in Rain Light Rain
12:35 PM 57.2 °F - 51.8 °F 82% 29.57 in 7.0 mi SW 9.2 mph - 0.06 in Rain Rain
12:55 PM 55.4 °F - 51.8 °F 88% 29.56 in 10.0 mi SSW 6.9 mph - 0.09 in Rain Rain
1:15 PM 55.4 °F - 50.0 °F 82% 29.55 in 10.0 mi NW 9.2 mph 17.3 mph 0.03 in Rain Rain
1:35 PM 51.8 °F - 44.6 °F 76% 29.54 in 7.0 mi NNW 8.1 mph - 0.07 in Rain Rain
1:55 PM 48.2 °F - 44.6 °F 87% 29.53 in 5.0 mi North 8.1 mph - 0.11 in Rain Light Rain
2:15 PM 48.2 °F - 44.6 °F 87% 29.52 in 3.0 mi NNW 8.1 mph - 0.02 in Rain Rain
2:35 PM 48.2 °F - 42.8 °F 82% 29.51 in 4.0 mi NNW 10.4 mph - 0.05 in Rain Rain
2:55 PM 46.4 °F 44.3 °F 42.8 °F 87% 29.53 in 5.0 mi North 4.6 mph - 0.07 in Rain Rain
3:15 PM 46.4 °F 45.2 °F 42.8 °F 87% 29.51 in 7.0 mi ENE 3.5 mph - 0.03 in Rain Rain
3:35 PM 46.4 °F 42.4 °F 42.8 °F 87% 29.50 in 3.0 mi East 8.1 mph - 0.05 in Rain Light Rain
3:55 PM 46.4 °F 44.3 °F 41.0 °F 81% 29.50 in 0.5 mi East 4.6 mph - 0.09 in Rain Rain
4:15 PM 46.4 °F - 41.0 °F 81% 29.52 in 1.2 mi Calm Calm - 0.06 in Rain Heavy Rain
4:35 PM 46.4 °F - 41.0 °F 81% 29.52 in 1.0 mi Calm Calm - 0.13 in Rain Rain
4:55 PM 46.4 °F - 42.8 °F 87% 29.51 in 1.0 mi Calm Calm - 0.17 in Rain Rain
5:15 PM 46.4 °F 45.2 °F 41.0 °F 81% 29.52 in 2.5 mi NW 3.5 mph - 0.02 in Rain Rain
5:35 PM 46.4 °F - 41.0 °F 81% 29.50 in 2.5 mi Calm Calm - 0.05 in Rain Light Rain
5:55 PM 46.4 °F 44.3 °F 41.0 °F 81% 29.51 in 4.0 mi NNW 4.6 mph - 0.05 in Rain Rain
6:15 PM 44.6 °F 40.7 °F 39.2 °F 81% 29.50 in 7.0 mi NNW 6.9 mph - 0.02 in Rain Light Rain
6:35 PM 42.8 °F 39.3 °F 37.4 °F 81% 29.48 in 7.0 mi North 5.8 mph - 0.03 in Rain Light Rain
6:55 PM 42.8 °F 38.0 °F 37.4 °F 81% 29.51 in 10.0 mi NNW 8.1 mph - 0.04 in Rain Light Rain
7:15 PM 42.8 °F 37.0 °F 37.4 °F 81% 29.54 in 10.0 mi NW 10.4 mph - 0.03 in Rain Rain
7:35 PM 39.2 °F 32.5 °F 35.6 °F 87% 29.50 in 7.0 mi NNW 10.4 mph - 0.08 in Rain Rain
7:55 PM 39.2 °F 33.6 °F 33.8 °F 81% 29.49 in 10.0 mi North 8.1 mph - 0.10 in Rain Light Rain
8:15 PM 37.4 °F 32.8 °F 33.8 °F 87% 29.51 in 10.0 mi NNW 5.8 mph - 0.01 in Rain Light Rain
8:35 PM 37.4 °F 32.1 °F 33.8 °F 87% 29.53 in 7.0 mi NW 6.9 mph - 0.02 in Rain Rain
8:55 PM 37.4 °F 31.4 °F 33.8 °F 87% 29.53 in 7.0 mi NW 8.1 mph - 0.05 in Rain Light Rain
9:15 PM 37.4 °F 32.1 °F 32.0 °F 81% 29.51 in 7.0 mi NNW 6.9 mph - N/A Rain Light Rain
9:35 PM 37.4 °F 32.1 °F 32.0 °F 81% 29.51 in 7.0 mi NNW 6.9 mph - N/A Rain Light Rain
9:55 PM 37.4 °F 32.8 °F 32.0 °F 81% 29.52 in 10.0 mi NNW 5.8 mph - 0.01 in Rain Light Rain
10:15 PM 35.6 °F 30.7 °F 30.2 °F 81% 29.49 in 5.0 mi NNW 5.8 mph - 0.01 in Rain Light Rain
10:35 PM 35.6 °F 29.9 °F 30.2 °F 81% 29.50 in 7.0 mi NNW 6.9 mph - 0.02 in Rain Light Rain
10:55 PM 35.6 °F 27.1 °F 30.2 °F 81% 29.45 in 5.0 mi North 12.7 mph 17.3 mph 0.03 in Rain Light Rain
11:15 PM 35.6 °F 28.0 °F 30.2 °F 81% 29.49 in 5.0 mi NNW 10.4 mph 16.1 mph N/A Rain Light Rain
11:35 PM 35.6 °F 28.0 °F 30.2 °F 81% 29.47 in 7.0 mi North 10.4 mph - N/A   Light Drizzle
11:55 PM 35.6 °F 28.6 °F 30.2 °F 81% 29.46 in 7.0 mi North 9.2 mph 16.1 mph N/A Rain Light Rain